This is the latest recevied weather packets stored in our database for station/object KC2G. If no packets are shown the sender has not sent any weather packets the latest 10 day(s).
| Time | Temp. | Humidity | Pressure | Rain* | Wind** | Luminosity | Snow |
|---|---|---|---|---|---|---|---|
| 1777652155 | 15° C | 41% | 1011.5 hPa | 0 mm | 0.45 m/s, 118° | - | - |
| 1777651255 | 15° C | 42% | 1011.7 hPa | 0 mm | 0.89 m/s, 19° | - | - |
| 1777650355 | 15° C | 39% | 1012 hPa | 0 mm | 0.89 m/s, 282° | - | - |
| 1777649455 | 14.44° C | 43% | 1012.3 hPa | 0 mm | 0.89 m/s, 349° | - | - |
| 1777647655 | 13.89° C | 44% | 1012.5 hPa | 0 mm | 0.45 m/s, 253° | - | - |
| 1777646754 | 13.33° C | 44% | 1012.6 hPa | 0 mm | 0.45 m/s, 289° | - | - |
| 1777645855 | 13.33° C | 48% | 1012.8 hPa | 0 mm | 0.89 m/s, 342° | - | - |
| 1777645012 | 12.78° C | 48% | 1012.8 hPa | 0 mm | 0.45 m/s, 1° | - | - |
| 1777644955 | 12.78° C | 48% | 1012.8 hPa | 0 mm | 0.45 m/s, 1° | - | - |
| 1777644055 | 12.78° C | 48% | 1012.8 hPa | 0 mm | 0.45 m/s, 308° | - | - |
| 1777643635 | 11.67° C | 55% | 1013.1 hPa | 0 mm | 0.89 m/s, 252° | - | - |
| 1777643155 | 11.67° C | 52% | 1012.9 hPa | 0 mm | 0.45 m/s, 254° | - | - |
| 1777642255 | 11.67° C | 55% | 1013.1 hPa | 0 mm | 0.89 m/s, 252° | - | - |
| 1777641355 | 11.11° C | 57% | 1013.3 hPa | 0 mm | 0.89 m/s, 293° | - | - |
| 1777640455 | 11.11° C | 58% | 1013.4 hPa | 0 mm | 0.89 m/s, 277° | - | - |
| 1777639555 | 10.56° C | 59% | 1013.5 hPa | 0 mm | 0.89 m/s, 336° | - | - |
| 1777638655 | 9.44° C | 62% | 1013.8 hPa | 0 mm | 0.45 m/s, 336° | - | - |
| 1777637755 | 8.89° C | 66% | 1013.8 hPa | 0 mm | 0.45 m/s, 243° | - | - |
| 1777636855 | 8.33° C | 69% | 1013.7 hPa | 0 mm | 0.45 m/s, 309° | - | - |
| 1777635955 | 8.33° C | 70% | 1013.8 hPa | 0 mm | 0 m/s | - | - |
| 1777635942 | 6.11° C | 81% | 1013.9 hPa | 0 mm | 0 m/s | - | - |
| 1777635056 | 7.22° C | 77% | 1013.9 hPa | 0 mm | 0 m/s | - | - |
| 1777634154 | 6.11° C | 81% | 1013.9 hPa | 0 mm | 0 m/s | - | - |
| 1777634022 | 5.56° C | 84% | 1013.7 hPa | 0 mm | 0 m/s | - | - |
| 1777633255 | 5.56° C | 82% | 1013.9 hPa | 0 mm | 0 m/s | - | - |
* Rain latest hour (hover to see other rain measurements)
** Current wind speed in m/s (hover to see current wind gust speed)